Theta_e
319 321 321 321 321 321 318 317 316 317 318 316 316 317 317 317 317 317 317 317 318 318 317 317 319 319 318 318 318 316 315 316 315 314 314 313 312 311
315 319 320 321 319 320 319 318 316 317 317 317 316 317 316 317 317 316 317 317 317 317 317 317 316 316 317 316 314 312 311 311 311 311 310 308 306 303
311 314 317 314 316 320 319 318 317 317 318 317 317 317 317 316 316 317 317 317 316 316 314 313 313 310 309 308 308 305 305 302 299 297 293 290 290 289
319 310 312 310 315 319 319 318 316 316 318 317 317 317 316 316 316 315 314 313 311 309 307 305 305 305 302 299 299 295 290 288 287 287 287 287 287 287
323 319 310 309 313 317 313 318 314 315 316 317 317 317 316 315 312 311 308 305 304 303 303 300 297 294 292 290 288 286 286 285 285 285 284 284 284 284
320 322 314 311 314 316 316 315 314 315 317 317 317 316 315 311 308 306 304 302 301 298 296 293 291 289 287 286 286 285 284 284 284 283 282 281 281 280
319 320 316 313 320 317 314 315 316 317 317 317 316 315 312 307 304 302 300 296 293 290 287 285 286 285 284 284 283 282 282 281 281 281 281 280 279 279
320 318 318 319 319 317 316 317 318 318 317 317 315 311 306 302 300 297 292 288 286 287 285 283 284 283 283 282 282 281 280 280 280 280 279 278 278 278
319 320 319 317 317 317 317 317 317 316 314 312 309 304 301 295 289 287 287 286 284 286 285 284 282 282 282 282 280 280 280 280 280 279 280 280 279 279
317 317 318 318 317 318 317 316 313 310 306 304 300 294 290 288 285 287 287 285 282 282 282 281 280 280 281 281 280 280 281 280 280 281 281 281 280 280
315 316 317 317 314 314 313 312 307 302 294 291 290 287 289 290 287 284 283 282 281 279 280 279 278 278 279 280 280 280 281 281 282 281 280 280 279 278
313 311 310 310 306 303 304 303 301 294 289 286 291 289 284 283 282 282 281 281 280 279 278 278 277 276 277 279 278 278 278 277 277 277 278 277 277 276
311 306 302 300 298 296 295 293 293 288 291 288 285 283 282 281 281 280 280 279 277 276 277 277 276 276 277 276 277 277 278 278 278 278 278 278 279 277
306 298 293 292 290 286 288 291 291 289 285 283 281 280 280 279 279 278 278 277 277 277 277 276 276 275 275 276 277 278 278 278 278 278 279 278 278 278
299 293 289 289 290 290 290 288 285 283 281 281 280 279 278 278 278 277 277 277 277 277 277 276 276 277 275 275 276 277 277 279 279 279 278 278 278 279
292 293 292 291 290 288 284 281 280 280 280 279 279 278 277 277 277 277 277 277 276 275 275 276 277 277 277 277 276 277 279 279 279 279 278 279 280 281
294 290 288 288 286 281 279 279 279 278 279 278 277 277 277 277 277 277 277 277 276 275 274 274 276 276 278 279 278 278 279 279 279 278 278 280 281 282
290 288 285 279 278 279 279 278 278 278 277 277 277 276 276 276 276 276 276 276 275 275 275 275 277 277 278 278 280 280 281 281 281 280 280 281 282 283
289 283 280 279 278 278 278 277 277 276 276 276 276 276 276 276 276 276 275 275 275 274 274 274 274 275 276 278 280 280 281 281 281 281 279 281 283 283
281 279 279 278 278 278 277 277 276 276 276 275 275 275 275 275 275 275 275 275 275 274 273 274 274 276 276 275 276 281 279 278 279 279 280 280 282 283
278 278 277 277 277 277 276 276 276 275 275 275 275 275 275 275 275 275 275 275 274 273 273 273 275 277 276 275 276 279 281 280 279 280 281 281 281 282
277 277 277 277 276 276 276 275 275 275 274 274 274 274 274 274 274 274 274 273 272 273 273 273 274 274 274 275 276 277 279 281 280 281 282 281 280 281
277 277 276 276 276 275 275 274 274 274 274 273 273 273 274 274 274 274 273 272 272 273 272 273 273 274 274 275 275 276 277 279 280 281 282 282 282 282
Wind_Speed
44 43 36 28 26 25 26 22 25 19 14 16 20 22 22 19 20 24 24 25 25 27 28 28 29 30 32 33 32 33 35 36 35 36 39 40 41 41
44 41 38 36 38 36 31 26 30 28 21 24 23 23 20 22 23 25 26 27 28 29 28 29 29 31 31 32 32 32 31 34 37 39 40 42 43 43
45 43 41 46 41 39 33 30 30 28 25 24 25 24 21 22 26 24 27 28 29 31 28 27 27 26 26 26 27 28 30 32 35 37 37 38 39 40
44 46 46 45 40 40 36 33 34 31 32 28 31 30 28 31 24 24 24 25 23 22 22 21 20 21 22 24 27 29 29 31 33 36 37 38 40 42
44 46 49 47 42 40 40 40 38 40 42 37 28 26 24 23 22 22 20 19 17 18 19 18 18 19 21 26 27 26 27 28 32 34 37 40 41 42
57 47 49 45 35 48 45 44 43 43 35 31 32 33 26 23 21 19 18 16 15 14 16 17 18 19 19 21 24 27 28 29 32 34 36 38 39 41
48 43 44 48 35 44 45 46 38 38 32 33 27 24 23 20 18 15 12 10 9 10 13 16 17 17 19 21 24 25 25 27 30 32 34 37 38 40
45 43 40 39 41 36 37 38 38 32 31 25 25 24 19 13 10 7 5 6 8 7 14 13 16 16 18 20 21 21 24 26 28 31 34 36 39 41
34 36 34 34 35 37 35 30 26 26 24 20 19 15 12 8 4 0 3 6 8 11 13 13 16 17 20 18 16 22 23 25 28 30 32 34 37 40
33 34 31 29 26 28 27 27 22 19 16 15 14 13 9 6 4 3 6 7 8 11 13 14 17 20 19 13 20 21 22 24 24 27 29 32 37 40
29 25 24 21 21 20 20 19 19 19 19 15 13 12 7 4 5 5 4 5 6 7 13 18 15 19 16 19 20 22 23 22 24 24 28 31 33 37
25 24 21 21 21 18 14 17 20 21 19 17 12 9 8 5 3 4 7 8 9 5 13 17 15 17 11 21 21 21 22 23 29 28 29 30 32 33
29 26 24 23 24 24 21 20 20 20 15 13 12 10 8 7 7 9 11 12 11 7 13 15 15 16 15 20 21 20 20 24 23 22 24 30 33 31
32 31 31 30 29 27 23 20 19 18 16 14 12 11 11 11 11 12 12 12 11 11 12 15 15 14 16 21 21 22 21 21 20 21 27 27 29 31
33 34 34 30 28 24 21 20 20 18 17 16 14 13 13 12 11 10 12 13 11 10 11 12 14 14 14 15 19 21 23 22 16 26 26 25 27 29
36 34 32 28 26 24 23 21 20 18 17 16 15 14 13 11 11 12 12 12 9 9 12 13 14 15 14 12 14 17 18 16 22 23 25 25 24 25
33 32 31 28 26 26 25 23 20 18 17 17 15 13 11 10 10 12 12 12 10 10 10 11 14 13 11 12 12 12 17 18 21 23 26 25 24 27
33 32 29 27 26 26 23 21 19 18 17 15 13 11 10 10 10 11 13 13 11 11 12 14 16 15 13 9 14 17 17 21 24 26 25 26 26 27
25 28 28 27 26 24 21 19 18 16 15 13 11 9 8 8 10 11 13 14 12 11 11 13 14 16 15 13 8 14 19 21 24 24 22 24 27 25
27 28 27 25 23 21 20 18 17 15 13 10 8 7 6 7 8 9 12 15 13 11 10 10 11 15 14 14 16 12 17 22 23 24 24 25 22 17
26 26 24 22 21 19 18 16 14 12 10 8 6 5 4 5 6 8 11 14 14 12 11 12 13 14 13 13 15 16 13 15 17 20 22 24 23 18
23 22 22 20 19 17 15 13 12 10 8 6 4 3 3 4 5 7 9 11 12 13 13 14 13 12 11 12 15 18 17 14 14 14 13 20 22 17
21 20 19 18 16 14 13 11 10 8 6 4 2 1 3 4 5 7 9 10 12 14 14 15 13 11 11 12 15 16 18 17 17 16 13 14 18 18
Wind_Direction
208 209 207 205 204 205 218 222 219 177 185 217 239 231 231 239 261 272 270 273 281 278 281 282 281 282 283 282 283 290 289 287 282 284 282 278 279 282
213 211 207 210 218 223 224 220 214 209 217 238 233 233 241 256 266 265 269 270 279 288 283 283 282 281 279 276 281 288 285 285 287 287 286 287 290 293
218 216 212 224 223 224 224 217 222 232 244 233 232 239 251 270 272 265 273 271 276 276 270 273 279 279 284 289 294 298 297 299 299 298 297 296 295 295
221 221 221 225 222 223 224 230 236 251 239 254 236 246 259 264 249 265 259 258 259 263 272 279 285 294 305 309 305 305 307 307 307 306 305 302 302 301
228 223 221 221 217 223 232 232 236 244 258 252 241 244 228 254 238 246 247 252 262 271 280 292 306 313 315 313 311 312 312 310 308 309 309 310 309 306
235 223 220 215 222 241 227 236 243 247 252 244 240 234 235 231 235 236 243 256 271 285 295 303 307 309 309 312 314 318 317 313 312 313 314 312 312 313
207 214 214 217 227 236 236 243 247 247 230 236 231 233 231 222 227 239 248 264 281 296 306 316 320 328 326 330 326 323 321 322 323 322 322 321 321 320
211 210 213 219 222 233 235 239 232 230 229 234 233 228 215 214 219 237 277 304 311 320 327 329 327 331 328 332 326 331 336 337 332 328 327 326 323 320
202 201 206 212 220 227 223 216 217 217 225 225 221 202 191 185 176 158 331 338 333 320 325 331 324 330 340 340 344 344 341 334 333 332 330 327 321 317
191 190 195 191 195 205 211 209 207 207 199 189 177 160 145 125 96 39 1 348 349 320 335 342 336 339 352 360 355 348 338 339 340 340 334 329 326 323
163 165 181 184 185 196 204 202 184 168 143 135 124 117 108 62 34 14 4 3 351 341 352 357 347 343 350 11 354 341 347 349 345 339 338 342 339 331
159 160 164 170 171 164 184 174 163 140 133 128 118 106 97 93 54 38 28 25 20 30 343 360 357 355 341 1 336 340 337 331 325 320 336 332 331 325
164 162 161 162 153 145 145 141 138 133 129 120 115 115 104 82 58 44 36 36 30 20 352 3 0 354 346 325 332 336 330 328 329 329 328 327 336 331
163 156 148 143 139 135 136 134 131 121 116 122 121 110 95 78 60 45 35 28 23 10 1 360 356 350 335 326 328 337 335 336 335 338 333 332 331 332
159 150 138 138 141 132 123 117 117 130 136 131 119 108 95 80 63 46 32 23 16 8 5 4 357 347 328 321 319 330 338 346 349 341 341 340 338 337
143 143 148 143 136 128 122 135 138 134 128 121 115 110 96 81 62 46 33 24 21 357 356 358 358 347 342 339 331 335 343 341 344 343 347 348 349 348
147 141 138 138 131 136 139 135 132 129 129 123 116 105 91 73 55 41 31 26 16 356 350 346 350 347 347 0 345 341 348 352 350 352 355 352 0 357
143 140 137 136 137 138 138 136 134 133 127 122 115 105 89 67 52 36 28 22 10 358 351 351 354 356 359 358 12 6 10 1 3 2 349 346 349 354
139 137 139 142 139 139 139 138 136 134 131 125 115 102 85 64 46 33 24 16 8 359 351 349 350 351 349 344 355 359 357 357 357 348 344 349 351 345
142 140 141 142 139 141 141 141 141 137 133 130 121 106 82 57 39 26 19 12 4 359 347 342 344 343 340 330 328 358 348 339 338 336 341 353 340 341
140 141 142 142 143 146 145 145 143 141 139 133 120 97 67 48 28 20 10 6 7 346 342 340 338 346 343 334 325 330 347 349 333 339 352 346 341 346
142 144 143 143 143 144 144 145 143 143 136 123 107 83 46 26 11 5 359 357 353 350 344 339 340 341 333 326 322 326 334 350 349 343 350 344 341 340
143 144 143 142 144 147 153 154 151 146 143 132 110 42 6 355 350 358 352 347 349 352 346 342 339 336 332 329 330 327 332 334 339 341 347 339 354 347